Location: *
(51.1248°S, 108.4023°W)
Time: 21:50:08
(UTC+00:00)

Cosmos 2218 Rocket - Visible Passes

Search period start: 23 October 2021 00:00
Search period end: 02 November 2021 00:00
Orbit: 957 x 1005 km, 82.9° (Epoch: 23 October)

Date Brightness Start Highest point End Pass type
(mag) Time Alt. Az. Time Alt. Az. Time Alt. Az.
23 Oct 6.5 10:54:01 10° NE 10:58:54 24° E 11:03:46 10° SSE visible
25 Oct 6.9 10:05:22 10° E 10:08:08 13° ESE 10:10:53 10° SE visible
26 Oct 6.4 10:29:53 10° NE 10:34:37 23° E 10:39:20 10° SSE visible
27 Oct 5.6 10:55:35 10° NNE 11:01:17 39° E 11:06:59 10° SSE visible
28 Oct 6.8 09:41:30 10° E 09:43:52 12° ESE 09:46:14 10° SE visible
29 Oct 6.4 10:05:47 10° NE 10:10:20 22° E 10:14:53 10° SSE visible
30 Oct 5.6 10:31:23 10° NNE 10:36:59 36° E 10:42:36 10° SSE visible
31 Oct 6.8 09:17:42 10° E 09:19:37 11° ESE 09:21:31 10° SE visible
31 Oct 4.6 10:57:41 10° N 11:03:48 62° E 11:09:57 10° SSE visible
01 Nov 6.4 09:41:40 10° NE 09:46:03 20° E 09:50:26 10° SE visible
